Kirksville, MO

10:59 AM CDT on May 24, 2017 (GMT -0500)
Kirksville Regional

Weather History for KIRK - May, 2013

Change the Weather History Date:

Friday, May 10, 2013

  Actual Average Record
Temperature  
Mean Temperature 50 °F 60 °F  
Max Temperature 58 °F 70 °F 91 °F (2011)
Min Temperature 41 °F 50 °F 29 °F (1966)
Degree Days  
Heating Degree Days 15 6  
Month to date heating degree days 111 74  
Since 1 July heating degree days 5957 5764  
Cooling Degree Days 0 1  
Month to date cooling degree days 0 9  
Year to date cooling degree days 10 16  
Moisture  
Dew Point 49 °F    
Average Humidity 89    
Maximum Humidity 100    
Minimum Humidity 77    
Precipitation  
Precipitation T in 0.15 in 0.96 in (1951)
Month to date precipitation 1.44 1.75  
Year to date precipitation 17.41 10.94  
Sea Level Pressure  
Sea Level Pressure 29.99 in    
Wind  
Wind Speed 8 mph (NNW)    
Max Wind Speed 17 mph    
Max Gust Speed 23 mph    
Visibility 7 miles    
Events Fog    
T = Trace of Precipitation, MM = Missing Value Source: NWS Daily Summary

Daily Weather History Graph

Daily Weather History Graph

Search for Another Location

Airport or City:

Trip Planner

Search our weather history database for the weather conditions in past years. The results will help you decide how hot, cold, wet, or windy it might be!

Date:

Astronomy

May. 10, 2013 Rise Set
Actual Time 5:59 AM CDT 8:14 PM CDT
Civil Twilight 5:29 AM CDT 8:44 PM CDT
Nautical Twilight 4:51 AM CDT 9:22 PM CDT
Astronomical Twilight 4:11 AM CDT 10:03 PM CDT
Moon 6:23 AM CDT (5/10) 9:04 PM CDT (5/10)
Length of Visible Light 15h 15m
Length of Day
14h 14m
New Moon, 0% of the Moon is Illuminated
May 10
New Moon
May 17
First Quarter
May 24
Full
May 31
Last Quarter
Jun 8
New

Hourly Weather History & Observations

Time (CDT) Temp. Windchill Dew Point Humidity Pressure Visibility Wind Dir Wind Speed Gust Speed Precip Events Conditions
12:55 AM 55.9 °F - 55.0 °F 97% 29.91 in 10.0 mi WNW 6.9 mph - N/A   Clear
1:55 AM 57.0 °F - 55.0 °F 93% 29.88 in 9.0 mi WNW 6.9 mph - N/A   Scattered Clouds
2:24 AM 55.4 °F - 55.4 °F 100% 29.87 in 7.0 mi NW 5.8 mph - N/A   Mostly Cloudy
2:41 AM 57.2 °F - 55.4 °F 94% 29.87 in 8.0 mi NW 5.8 mph - N/A   Overcast
2:55 AM 57.0 °F - 55.9 °F 96% 29.88 in 8.0 mi NW 8.1 mph - N/A   Overcast
3:30 AM 57.2 °F - 55.4 °F 94% 29.90 in 9.0 mi NNW 8.1 mph 16.1 mph N/A   Overcast
3:46 AM 57.2 °F - 55.4 °F 94% 29.90 in 9.0 mi NW 6.9 mph - N/A   Overcast
3:55 AM 57.0 °F - 55.0 °F 93% 29.91 in 10.0 mi NNW 9.2 mph - N/A   Overcast
4:55 AM 55.9 °F - 53.1 °F 90% 29.91 in 10.0 mi NNW 8.1 mph - N/A   Overcast
5:46 AM 55.4 °F - 53.6 °F 94% 29.92 in 9.0 mi NNW 6.9 mph - N/A   Overcast
5:55 AM 54.0 °F - 52.0 °F 93% 29.92 in 7.0 mi NNW 12.7 mph 21.9 mph N/A   Overcast
6:55 AM 53.6 °F - 51.8 °F 94% 29.94 in 10.0 mi NNW 12.7 mph 17.3 mph N/A   Overcast
7:55 AM 53.6 °F - 51.8 °F 94% 29.94 in 10.0 mi North 10.4 mph - N/A   Overcast
8:15 AM 55.4 °F - 51.8 °F 88% 29.95 in 10.0 mi North 11.5 mph 19.6 mph N/A   Overcast
8:55 AM 55.0 °F - 51.1 °F 86% 29.96 in 10.0 mi North 11.5 mph - N/A   Overcast
9:37 AM 53.6 °F - 51.8 °F 94% 29.96 in 10.0 mi North 11.5 mph - N/A   Overcast
9:50 AM 55.4 °F - 51.8 °F 88% 29.97 in 10.0 mi NNW 8.1 mph - N/A   Overcast
9:55 AM 54.0 °F - 51.1 °F 90% 29.98 in 10.0 mi North 12.7 mph 18.4 mph N/A   Overcast
10:14 AM 53.6 °F - 51.8 °F 94% 29.98 in 8.0 mi North 11.5 mph 17.3 mph N/A   Overcast
10:49 AM 55.4 °F - 51.8 °F 88% 29.98 in 10.0 mi North 11.5 mph - N/A   Overcast
10:55 AM 55.9 °F - 51.1 °F 84% 29.99 in 10.0 mi North 10.4 mph - N/A   Overcast
11:05 AM 57.2 °F - 51.8 °F 82% 29.98 in 10.0 mi North 11.5 mph - N/A   Overcast
11:22 AM 57.2 °F - 51.8 °F 82% 29.99 in 10.0 mi North 10.4 mph - N/A   Overcast
11:55 AM 57.2 °F - 51.8 °F 82% 30.00 in 10.0 mi North 9.2 mph - N/A   Overcast
12:14 PM 55.4 °F - 50.0 °F 82% 30.00 in 10.0 mi NNW 10.4 mph - N/A   Overcast
12:55 PM 57.0 °F - 51.1 °F 81% 30.01 in 10.0 mi NNW 15.0 mph 18.4 mph N/A   Overcast
1:46 PM 53.6 °F - 50.0 °F 88% 30.01 in 9.0 mi NNW 9.2 mph - N/A   Overcast
1:55 PM 55.9 °F - 50.0 °F 80% 30.02 in 10.0 mi NNW 11.5 mph - N/A   Overcast
2:55 PM 54.0 °F - 48.9 °F 83% 30.02 in 10.0 mi NNW 9.2 mph 17.3 mph 0.00 in   Overcast
3:53 PM 55.4 °F - 48.2 °F 77% 30.01 in 10.0 mi NNW 10.4 mph - N/A   Overcast
3:55 PM 55.9 °F - 48.9 °F 77% 30.02 in 10.0 mi North 9.2 mph - N/A   Overcast
4:55 PM 54.0 °F - 48.9 °F 83% 30.03 in 10.0 mi NNW 10.4 mph - N/A   Overcast
5:55 PM 55.0 °F - 48.9 °F 80% 30.02 in 10.0 mi North 4.6 mph - N/A   Overcast
6:55 PM 55.0 °F - 48.9 °F 80% 30.03 in 10.0 mi North 6.9 mph - N/A   Overcast
7:41 PM 53.6 °F - 48.2 °F 82% 30.01 in 10.0 mi NE 8.1 mph - N/A   Scattered Clouds
7:55 PM 53.1 °F - 48.9 °F 86% 30.02 in 10.0 mi NE 4.6 mph - N/A   Clear
8:55 PM 48.9 °F - 46.9 °F 93% 30.03 in 10.0 mi Calm Calm - N/A   Clear
9:21 PM 46.4 °F - 46.4 °F 100% 30.02 in 0.8 mi Calm Calm - N/A   Clear
9:33 PM 46.4 °F - 46.4 °F 100% 30.02 in 2.0 mi Calm Calm - N/A   Clear
9:40 PM 46.4 °F - 46.4 °F 100% 30.02 in 5.0 mi Calm Calm - N/A   Clear
9:45 PM 46.4 °F - 46.4 °F 100% 30.03 in 0.8 mi Calm Calm - N/A   Clear
9:52 PM 46.4 °F - 44.6 °F 93% 30.03 in 0.5 mi Calm Calm - N/A Fog Fog
9:55 PM 46.0 °F - 45.0 °F 96% 30.05 in 0.5 mi Calm Calm - N/A Fog Fog
10:05 PM 44.6 °F - 44.6 °F 100% 30.03 in 1.0 mi Calm Calm - N/A   Clear
10:10 PM 46.4 °F - 44.6 °F 93% 30.03 in 3.0 mi Calm Calm - N/A   Clear
10:20 PM 44.6 °F - 44.6 °F 100% 30.03 in 1.8 mi Calm Calm - N/A   Clear
10:36 PM 42.8 °F - 42.8 °F 100% 30.03 in 3.0 mi Calm Calm - N/A   Clear
10:55 PM 43.0 °F - 42.1 °F 97% 30.05 in 5.0 mi Calm Calm - N/A   Clear
11:01 PM 42.8 °F - 42.8 °F 100% 30.03 in 1.8 mi Calm Calm - N/A   Clear
11:07 PM 44.6 °F - 42.8 °F 93% 30.03 in 0.5 mi Calm Calm - N/A Fog Fog
11:55 PM 41.0 °F 39.0 °F 41.0 °F 100% 30.06 in 1.8 mi SW 3.5 mph - N/A   Clear
11:57 PM 41.0 °F 39.0 °F 39.2 °F 93% 30.04 in 4.0 mi SW 3.5 mph - N/A   Clear